Time,TemperatureF,DewpointF,PressureIn,WindDirection,WindDirectionDegrees,WindSpeedMPH,WindSpeedGustMPH,Humidity,HourlyPrecipIn,Conditions,Clouds,dailyrainin,SoftwareType,DateUTC
2013-09-23 00:05:00,58.1,57.0,29.88,NNW,327,0.0,0.0,95,0.00,,,0.00,weatherlink.com 1.10,2013-09-23 04:05:00,
2013-09-23 00:20:00,58.1,57.0,29.88,NNW,327,0.0,0.0,95,0.00,,,0.00,weatherlink.com 1.10,2013-09-23 04:20:00,
2013-09-23 00:35:00,58.4,57.0,29.89,NNW,327,0.0,0.0,96,0.00,,,0.00,weatherlink.com 1.10,2013-09-23 04:35:00,
2013-09-23 00:50:00,59.0,58.0,29.89,NNW,327,0.0,0.0,96,0.00,,,0.00,weatherlink.com 1.10,2013-09-23 04:50:00,
2013-09-23 01:05:00,59.3,58.0,29.89,NNW,327,0.0,0.0,95,0.00,,,0.00,weatherlink.com 1.10,2013-09-23 05:05:00,
2013-09-23 01:20:00,60.0,57.0,29.90,NNW,327,0.0,0.0,91,0.00,,,0.00,weatherlink.com 1.10,2013-09-23 05:20:00,
2013-09-23 01:35:00,60.7,58.0,29.90,NNW,330,0.0,0.0,91,0.00,,,0.00,weatherlink.com 1.10,2013-09-23 05:35:00,
2013-09-23 01:50:00,60.4,58.0,29.90,NNW,330,0.0,0.0,92,0.00,,,0.00,weatherlink.com 1.10,2013-09-23 05:50:00,
2013-09-23 02:05:00,59.9,58.0,29.91,NNW,330,0.0,0.0,92,0.00,,,0.00,weatherlink.com 1.10,2013-09-23 06:05:00,
2013-09-23 02:20:00,59.4,57.0,29.91,NNW,330,0.0,0.0,92,0.00,,,0.00,weatherlink.com 1.10,2013-09-23 06:20:00,
2013-09-23 02:35:00,58.8,57.0,29.91,NNW,330,0.0,0.0,93,0.00,,,0.00,weatherlink.com 1.10,2013-09-23 06:35:00,
2013-09-23 02:50:00,58.1,56.0,29.91,NNW,330,0.0,0.0,94,0.00,,,0.00,weatherlink.com 1.10,2013-09-23 06:50:00,
2013-09-23 03:06:00,57.3,56.0,29.90,NNW,330,0.0,0.0,94,0.00,,,0.00,weatherlink.com 1.10,2013-09-23 07:06:00,
2013-09-23 03:21:00,56.8,55.0,29.90,NNW,330,0.0,0.0,94,0.00,,,0.00,weatherlink.com 1.10,2013-09-23 07:21:00,
2013-09-23 03:36:00,56.2,55.0,29.91,NNW,330,0.0,0.0,95,0.00,,,0.00,weatherlink.com 1.10,2013-09-23 07:36:00,
2013-09-23 03:51:00,55.7,54.0,29.91,NNW,330,0.0,0.0,95,0.00,,,0.00,weatherlink.com 1.10,2013-09-23 07:51:00,
2013-09-23 04:06:00,55.4,54.0,29.91,NNW,330,0.0,0.0,96,0.00,,,0.00,weatherlink.com 1.10,2013-09-23 08:06:00,
2013-09-23 04:21:00,55.5,54.0,29.92,NNW,330,0.0,0.0,96,0.00,,,0.00,weatherlink.com 1.10,2013-09-23 08:21:00,
2013-09-23 04:36:00,56.0,55.0,29.92,NNW,330,0.0,0.0,97,0.00,,,0.00,weatherlink.com 1.10,2013-09-23 08:36:00,
2013-09-23 04:51:00,56.7,56.0,29.93,North,355,0.0,0.0,97,0.00,,,0.00,weatherlink.com 1.10,2013-09-23 08:51:00,
2013-09-23 05:06:00,57.0,56.0,29.93,North,355,0.0,0.0,95,0.00,,,0.00,weatherlink.com 1.10,2013-09-23 09:06:00,
2013-09-23 05:21:00,57.0,56.0,29.93,North,355,0.0,0.0,95,0.00,,,0.00,weatherlink.com 1.10,2013-09-23 09:21:00,
2013-09-23 05:36:00,56.8,55.0,29.94,North,355,0.0,0.0,95,0.00,,,0.00,weatherlink.com 1.10,2013-09-23 09:36:00,
2013-09-23 05:51:00,56.5,55.0,29.95,North,355,0.0,0.0,95,0.00,,,0.00,weatherlink.com 1.10,2013-09-23 09:51:00,
2013-09-23 06:06:00,56.0,55.0,29.95,North,355,0.0,0.0,95,0.00,,,0.00,weatherlink.com 1.10,2013-09-23 10:06:00,
2013-09-23 06:21:00,55.5,54.0,29.95,North,355,0.0,0.0,95,0.00,,,0.00,weatherlink.com 1.10,2013-09-23 10:21:00,
2013-09-23 06:36:00,54.9,54.0,29.96,North,355,0.0,0.0,95,0.00,,,0.00,weatherlink.com 1.10,2013-09-23 10:36:00,
2013-09-23 06:51:00,54.8,54.0,29.96,North,355,0.0,0.0,96,0.00,,,0.00,weatherlink.com 1.10,2013-09-23 10:51:00,
2013-09-23 07:06:00,55.1,54.0,29.97,North,355,0.0,0.0,97,0.00,,,0.00,weatherlink.com 1.10,2013-09-23 11:06:00,
2013-09-23 07:21:00,55.5,55.0,29.98,North,355,0.0,0.0,97,0.00,,,0.00,weatherlink.com 1.10,2013-09-23 11:21:00,
2013-09-23 07:36:00,55.9,55.0,29.99,North,355,0.0,0.0,96,0.00,,,0.00,weatherlink.com 1.10,2013-09-23 11:36:00,
2013-09-23 07:51:00,56.7,55.0,29.99,North,351,0.0,0.0,95,0.00,,,0.00,weatherlink.com 1.10,2013-09-23 11:51:00,
2013-09-23 08:06:00,57.2,56.0,30.00,North,351,0.0,0.0,94,0.00,,,0.00,weatherlink.com 1.10,2013-09-23 12:06:00,
2013-09-23 08:21:00,57.9,56.0,30.00,NW,320,0.0,0.0,93,0.00,,,0.00,weatherlink.com 1.10,2013-09-23 12:21:00,
2013-09-23 08:36:00,58.5,56.0,30.01,NW,320,0.0,0.0,91,0.00,,,0.00,weatherlink.com 1.10,2013-09-23 12:36:00,
2013-09-23 08:51:00,58.9,56.0,30.02,North,5,0.0,0.0,91,0.00,,,0.00,weatherlink.com 1.10,2013-09-23 12:51:00,
2013-09-23 09:06:00,59.5,57.0,30.02,NNW,345,0.0,0.0,91,0.00,,,0.00,weatherlink.com 1.10,2013-09-23 13:06:00,
2013-09-23 09:21:00,60.3,57.0,30.03,North,5,0.0,0.0,89,0.00,,,0.00,weatherlink.com 1.10,2013-09-23 13:21:00,
2013-09-23 09:36:00,60.9,57.0,30.03,ENE,61,0.0,0.0,86,0.00,,,0.00,weatherlink.com 1.10,2013-09-23 13:36:00,
2013-09-23 09:51:00,61.4,57.0,30.03,NE,53,0.0,0.0,84,0.00,,,0.00,weatherlink.com 1.10,2013-09-23 13:51:00,
2013-09-23 10:06:00,61.9,56.0,30.03,East,89,0.0,0.0,81,0.00,,,0.00,weatherlink.com 1.10,2013-09-23 14:06:00,
2013-09-23 10:21:00,62.6,56.0,30.03,East,86,0.0,0.0,80,0.00,,,0.00,weatherlink.com 1.10,2013-09-23 14:21:00,
2013-09-23 10:36:00,63.1,57.0,30.03,East,90,0.0,0.0,79,0.00,,,0.00,weatherlink.com 1.10,2013-09-23 14:36:00,
2013-09-23 10:51:00,63.9,56.0,30.03,East,88,0.0,0.0,76,0.00,,,0.00,weatherlink.com 1.10,2013-09-23 14:51:00,
2013-09-23 11:06:00,64.7,56.0,30.03,ESE,115,0.0,0.0,74,0.00,,,0.00,weatherlink.com 1.10,2013-09-23 15:06:00,
2013-09-23 11:21:00,65.5,57.0,30.02,NE,39,0.0,0.0,73,0.00,,,0.00,weatherlink.com 1.10,2013-09-23 15:21:00,
2013-09-23 11:36:00,65.8,57.0,30.03,SE,143,0.0,0.0,72,0.00,,,0.00,weatherlink.com 1.10,2013-09-23 15:36:00,
2013-09-23 11:51:00,66.5,58.0,30.03,SE,133,0.0,0.0,73,0.00,,,0.00,weatherlink.com 1.10,2013-09-23 15:51:00,
2013-09-23 12:06:00,67.1,58.0,30.03,ESE,107,0.0,0.0,73,0.00,,,0.00,weatherlink.com 1.10,2013-09-23 16:06:00,
2013-09-23 12:21:00,67.6,57.0,30.02,SE,126,0.0,0.0,70,0.00,,,0.00,weatherlink.com 1.10,2013-09-23 16:21:00,
2013-09-23 12:36:00,68.2,57.0,30.02,South,179,0.0,0.0,68,0.00,,,0.00,weatherlink.com 1.10,2013-09-23 16:36:00,
2013-09-23 12:51:00,68.6,58.0,30.01,ENE,76,0.0,0.0,69,0.00,,,0.00,weatherlink.com 1.10,2013-09-23 16:51:00,
2013-09-23 13:07:00,70.1,58.0,30.01,South,190,0.0,0.0,65,0.00,,,0.00,weatherlink.com 1.10,2013-09-23 17:07:00,
2013-09-23 13:22:00,69.6,58.0,30.01,NE,34,0.0,0.0,67,0.00,,,0.00,weatherlink.com 1.10,2013-09-23 17:22:00,
2013-09-23 13:37:00,68.6,58.0,30.01,NNE,23,0.0,0.0,69,0.00,,,0.00,weatherlink.com 1.10,2013-09-23 17:37:00,
2013-09-23 13:52:00,68.7,58.0,30.01,East,88,0.0,0.0,68,0.00,,,0.00,weatherlink.com 1.10,2013-09-23 17:52:00,
2013-09-23 14:07:00,69.0,59.0,30.00,ESE,112,0.0,0.0,70,0.00,,,0.00,weatherlink.com 1.10,2013-09-23 18:07:00,
2013-09-23 14:22:00,71.0,60.0,30.00,SE,145,0.0,0.0,69,0.00,,,0.00,weatherlink.com 1.10,2013-09-23 18:22:00,
2013-09-23 14:37:00,70.6,59.0,30.00,East,85,0.0,0.0,66,0.00,,,0.00,weatherlink.com 1.10,2013-09-23 18:37:00,
2013-09-23 14:52:00,71.1,58.0,30.00,ESE,116,0.0,0.0,64,0.00,,,0.00,weatherlink.com 1.10,2013-09-23 18:52:00,
2013-09-23 15:07:00,71.2,58.0,30.00,SSW,211,0.0,0.0,64,0.00,,,0.00,weatherlink.com 1.10,2013-09-23 19:07:00,
2013-09-23 15:22:00,70.6,58.0,29.99,SSW,200,0.0,0.0,64,0.00,,,0.00,weatherlink.com 1.10,2013-09-23 19:22:00,
2013-09-23 15:37:00,71.7,59.0,29.99,East,99,0.0,0.0,64,0.00,,,0.00,weatherlink.com 1.10,2013-09-23 19:37:00,
2013-09-23 15:52:00,72.6,61.0,29.98,SSE,148,0.0,0.0,67,0.00,,,0.00,weatherlink.com 1.10,2013-09-23 19:52:00,
2013-09-23 16:07:00,73.3,58.0,29.98,WSW,248,0.0,0.0,60,0.00,,,0.00,weatherlink.com 1.10,2013-09-23 20:07:00,
2013-09-23 16:22:00,73.7,59.0,29.98,West,267,0.0,0.0,60,0.00,,,0.00,weatherlink.com 1.10,2013-09-23 20:22:00,
2013-09-23 16:37:00,72.5,58.0,29.97,SSW,213,0.0,0.0,60,0.00,,,0.00,weatherlink.com 1.10,2013-09-23 20:37:00,
2013-09-23 16:52:00,72.8,59.0,29.97,SSW,213,0.0,0.0,62,0.00,,,0.00,weatherlink.com 1.10,2013-09-23 20:52:00,
2013-09-23 17:07:00,73.8,59.0,29.98,SSW,193,0.0,0.0,60,0.00,,,0.00,weatherlink.com 1.10,2013-09-23 21:07:00,
2013-09-23 17:22:00,74.3,58.0,29.97,WSW,246,0.0,0.0,58,0.00,,,0.00,weatherlink.com 1.10,2013-09-23 21:22:00,
2013-09-23 17:37:00,73.9,59.0,29.97,WSW,242,0.0,0.0,59,0.00,,,0.00,weatherlink.com 1.10,2013-09-23 21:37:00,
2013-09-23 17:52:00,74.2,59.0,29.97,WSW,240,0.0,0.0,59,0.00,,,0.00,weatherlink.com 1.10,2013-09-23 21:52:00,
2013-09-23 18:07:00,74.2,60.0,29.97,ESE,115,0.0,0.0,62,0.00,,,0.00,weatherlink.com 1.10,2013-09-23 22:07:00,
2013-09-23 18:22:00,73.3,60.0,29.97,ESE,117,0.0,0.0,63,0.00,,,0.00,weatherlink.com 1.10,2013-09-23 22:22:00,
2013-09-23 18:37:00,72.5,60.0,29.97,SSW,200,0.0,0.0,66,0.00,,,0.00,weatherlink.com 1.10,2013-09-23 22:37:00,
2013-09-23 18:52:00,70.9,62.0,29.98,SE,143,0.0,0.0,73,0.00,,,0.00,weatherlink.com 1.10,2013-09-23 22:52:00,
2013-09-23 19:07:00,69.6,61.0,29.97,SE,143,0.0,0.0,75,0.00,,,0.00,weatherlink.com 1.10,2013-09-23 23:07:00,
2013-09-23 19:22:00,66.9,61.0,29.98,SE,143,0.0,0.0,80,0.00,,,0.00,weatherlink.com 1.10,2013-09-23 23:22:00,
2013-09-23 19:37:00,64.9,60.0,29.97,SE,143,0.0,0.0,85,0.00,,,0.00,weatherlink.com 1.10,2013-09-23 23:37:00,
2013-09-23 19:52:00,63.5,60.0,29.98,SE,143,0.0,0.0,88,0.00,,,0.00,weatherlink.com 1.10,2013-09-23 23:52:00,
2013-09-23 20:07:00,62.2,59.0,29.98,SE,143,0.0,0.0,89,0.00,,,0.00,weatherlink.com 1.10,2013-09-24 00:07:00,
2013-09-23 20:22:00,61.2,59.0,29.98,SE,143,0.0,0.0,92,0.00,,,0.00,weatherlink.com 1.10,2013-09-24 00:22:00,
2013-09-23 20:37:00,60.3,58.0,29.99,SE,143,0.0,0.0,92,0.00,,,0.00,weatherlink.com 1.10,2013-09-24 00:37:00,
2013-09-23 20:52:00,59.8,58.0,29.99,SE,143,0.0,0.0,93,0.00,,,0.00,weatherlink.com 1.10,2013-09-24 00:52:00,
2013-09-23 21:07:00,59.6,58.0,29.99,SE,143,0.0,0.0,94,0.00,,,0.00,weatherlink.com 1.10,2013-09-24 01:07:00,
2013-09-23 21:22:00,59.4,58.0,30.00,SE,143,0.0,0.0,95,0.00,,,0.00,weatherlink.com 1.10,2013-09-24 01:22:00,
2013-09-23 21:37:00,58.9,57.0,30.00,SE,143,0.0,0.0,94,0.00,,,0.00,weatherlink.com 1.10,2013-09-24 01:37:00,
2013-09-23 21:53:00,58.1,56.0,30.00,SE,143,0.0,0.0,94,0.00,,,0.00,weatherlink.com 1.10,2013-09-24 01:53:00,
2013-09-23 22:08:00,57.9,57.0,30.01,SE,143,0.0,0.0,95,0.00,,,0.00,weatherlink.com 1.10,2013-09-24 02:08:00,
2013-09-23 22:23:00,57.7,56.0,30.02,SE,143,0.0,0.0,95,0.00,,,0.00,weatherlink.com 1.10,2013-09-24 02:23:00,
2013-09-23 22:38:00,58.0,57.0,30.02,SE,143,0.0,0.0,96,0.00,,,0.00,weatherlink.com 1.10,2013-09-24 02:38:00,
2013-09-23 22:53:00,58.9,58.0,30.03,SE,143,0.0,0.0,97,0.00,,,0.00,weatherlink.com 1.10,2013-09-24 02:53:00,
2013-09-23 23:08:00,59.6,59.0,30.03,SE,143,0.0,0.0,97,0.00,,,0.00,weatherlink.com 1.10,2013-09-24 03:08:00,
2013-09-23 23:23:00,60.1,59.0,30.03,SE,143,0.0,0.0,97,0.00,,,0.00,weatherlink.com 1.10,2013-09-24 03:23:00,
2013-09-23 23:38:00,60.3,59.0,30.03,SE,143,0.0,0.0,96,0.00,,,0.00,weatherlink.com 1.10,2013-09-24 03:38:00,
2013-09-23 23:53:00,60.5,59.0,30.03,SE,143,0.0,0.0,96,0.00,,,0.00,weatherlink.com 1.10,2013-09-24 03:53:00,